Location: Antioch Baptist Church
(32.6696°N, 85.7327°W)
Time: 20:40:11
(UTC+00:00)

Cosmos 2360 Rocket - Pass Details

Date: 14 July 2020
Orbit: 832 x 846 km, 71.0° (Epoch: 13 August)

Event Time Altitude Azimuth Distance (km) Brightness Sun altitude
Rises 01:10:17 0° 223° (SW) 3,373 5.5 -4.2°
Reaches altitude 10° 01:12:56 10° 232° (SW) 2,445 4.9 -4.7°
Maximum altitude 01:17:59 34° 296° (WNW) 1,353 4.2 -5.6°
Drops below altitude 10° 01:23:05 10° 1° (N) 2,465 5.1 -6.5°
Sets 01:25:47 0° 11° (N) 3,405 5.6 -7.0°
